FW9064 Weather Reports


Display with metric or nautical units.
time (UTC)temp
F
wind
direction
speed
MPH
gust
MPH
rain 1hr
in
rain 24hr
in
rain mn
in
humidity
%
barometer
mb
20260905081910 73 111 0.0 0.0 0.00 0.00 0.00 99 1014.2
20260905081405 73 111 0.0 0.0 0.00 0.00 0.00 99 1014.3
20260905080904 73 112 0.0 0.0 0.00 0.00 0.00 99 1014.1
20260905080359 73 112 0.0 0.0 0.00 0.00 0.00 99 1014.1
20260905075858 73 112 0.0 0.0 0.00 0.00 0.00 99 1014.1
20260905075357 73 112 0.0 0.0 0.00 0.00 0.00 99 1014.0
20260905074856 73 112 0.0 0.0 0.00 0.00 0.00 99 1014.0
20260905074352 73 112 0.0 0.0 0.00 0.00 0.00 99 1014.1
20260905073848 73 111 0.0 0.0 0.00 0.00 0.00 99 1014.0
20260905073343 73 109 0.0 0.0 0.00 0.00 0.00 99 1013.8
20260905072838 73 110 0.0 0.0 0.00 0.00 0.00 98 1013.9
20260905072332 73 109 0.0 0.0 0.00 0.00 0.00 98 1014.0
20260905071829 73 112 0.0 0.0 0.00 0.00 0.00 98 1013.8
20260905071326 73 113 0.0 0.0 0.00 0.00 0.00 98 1014.0
20260905070820 73 109 0.0 0.0 0.00 0.00 0.00 98 1013.6
20260905070316 73 110 0.0 0.0 0.00 0.00 0.00 98 1013.8
20260905065815 74 110 0.0 0.0 0.00 0.00 0.00 98 1013.9
20260905065314 74 111 0.0 0.0 0.00 0.00 0.00 98 1013.6
20260905064809 74 112 0.0 0.0 0.00 0.00 0.00 98 1013.9
20260905064305 74 110 0.0 0.0 0.00 0.00 0.00 98 1013.9
20260905063803 74 110 0.0 0.0 0.00 0.00 0.00 98 1014.1
20260905063259 74 112 0.0 0.0 0.00 0.00 0.00 98 1014.1
20260905062755 74 111 0.0 0.0 0.00 0.00 0.00 97 1014.2
20260905062255 74 111 0.0 0.0 0.00 0.00 0.00 97 1014.1
20260905061749 74 111 0.0 0.0 0.00 0.00 0.00 97 1014.1
20260905061244 74 111 0.0 0.0 0.00 0.00 0.00 97 1014.4
20260905060738 74 110 0.0 0.0 0.00 0.00 0.00 97 1014.3
20260905060236 75 109 0.0 0.0 0.00 0.00 0.00 96 1014.3
20260905055734 75 111 0.0 0.0 0.00 0.00 0.00 96 1014.4
20260905055229 75 109 0.0 0.0 0.00 0.00 0.00 96 1014.5
20260905054724 75 110 0.0 0.0 0.00 0.00 0.00 96 1014.4
20260905054221 75 111 0.0 0.0 0.00 0.00 0.00 96 1014.4
20260905053719 75 110 0.0 0.0 0.00 0.00 0.00 96 1014.4
20260905053215 75 111 0.0 0.0 0.00 0.00 0.00 96 1014.4
20260905052714 75 111 0.0 0.0 0.00 0.00 0.00 96 1014.4
20260905052209 75 111 0.0 0.0 0.00 0.00 0.00 95 1014.1
20260905051709 75 110 0.0 0.0 0.00 0.00 0.00 95 1014.5
20260905051206 75 111 0.0 0.0 0.00 0.00 0.00 95 1014.4
20260905050702 75 112 0.0 0.0 0.00 0.00 0.00 95 1014.1
20260905050159 75 110 0.0 0.0 0.00 0.00 0.00 95 1014.2
20260905045658 75 109 0.0 0.0 0.00 0.00 0.00 95 1014.3
20260905045153 75 109 0.0 0.0 0.00 0.00 0.00 96 1014.1
20260905044649 75 109 0.0 0.0 0.00 0.00 0.00 96 1014.2
20260905044143 75 109 0.0 0.0 0.00 0.00 0.00 95 1014.2
20260905043642 76 109 0.0 0.0 0.00 0.00 0.00 95 1014.4
20260905043137 76 111 0.0 0.0 0.00 0.00 0.00 95 1014.3
20260905042637 76 111 0.0 0.0 0.00 0.00 0.00 95 1014.3
20260905042131 76 111 0.0 0.0 0.00 0.00 0.00 95 1014.5
20260905041627 76 110 0.0 0.0 0.00 0.00 0.00 94 1014.7
20260905041123 76 110 0.0 0.0 0.00 0.00 0.00 94 1014.2
20260905040623 76 113 0.0 0.0 0.00 0.00 0.00 94 1014.3
20260905040121 76 110 0.0 0.0 0.00 0.00 0.00 94 1014.5
20260905035616 76 110 0.0 0.0 0.00 0.00 0.00 94 1014.5
20260905035113 77 110 0.0 0.0 0.00 0.00 0.00 94 1014.6
20260905034609 77 110 0.0 0.0 0.00 0.00 0.00 93 1014.5
20260905034109 77 110 0.0 0.0 0.00 0.00 0.00 93 1014.5
20260905033608 77 110 0.0 0.0 0.00 0.00 0.00 93 1014.7
20260905033104 77 110 0.0 0.0 0.00 0.00 0.00 92 1014.2
20260905032604 77 110 0.0 0.0 0.00 0.00 0.00 92 1014.3
20260905032103 77 110 0.0 0.0 0.00 0.00 0.00 92 1014.4
20260905031600 77 110 0.0 0.0 0.00 0.00 0.00 92 1014.5
20260905031059 78 110 0.0 0.0 0.00 0.00 0.00 92 1014.8
20260905030554 78 111 0.0 0.0 0.00 0.00 0.00 91 1014.7
20260905030050 78 111 0.0 0.0 0.00 0.00 0.00 91 1014.7
20260905025544 78 110 0.0 0.0 0.00 0.00 0.00 91 1014.7
20260905025040 78 113 0.0 0.0 0.00 0.00 0.00 91 1014.7
20260905024536 78 110 0.0 0.0 0.00 0.00 0.00 90 1014.9
20260905024031 78 113 0.0 0.0 0.00 0.00 0.00 90 1015.1
20260905023526 79 112 0.0 0.0 0.00 0.00 0.00 90 1015.0
20260905023021 79 112 0.0 0.0 0.00 0.00 0.00 89 1015.0
20260905022520 79 112 0.0 0.0 0.00 0.00 0.00 89 1014.9
20260905022016 79 110 0.0 0.0 0.00 0.00 0.00 89 1014.9
20260905021515 80 108 0.0 0.0 0.00 0.00 0.00 89 1015.0
20260905021010 80 109 0.0 0.0 0.00 0.00 0.00 88 1015.0
20260905020505 80 111 0.0 0.0 0.00 0.00 0.00 88 1014.9
20260905015959 80 110 0.0 0.0 0.00 0.00 0.00 88 1014.8
20260905015458 80 112 0.0 0.0 0.00 0.00 0.00 87 1015.0
20260905014957 80 109 0.0 0.0 0.00 0.00 0.00 87 1014.7
20260905014452 80 112 0.0 0.0 0.00 0.00 0.00 86 1014.7
20260905013947 81 109 0.0 0.0 0.00 0.00 0.00 86 1014.6
20260905013439 81 113 0.0 0.0 0.00 0.00 0.00 85 1014.7
20260905012939 81 112 0.0 0.0 0.00 0.00 0.00 85 1014.6
20260905012434 82 112 0.0 0.0 0.00 0.00 0.00 84 1014.6
20260905011931 82 112 0.0 0.0 0.00 0.00 0.00 84 1014.4
20260905011427 82 112 0.0 0.0 0.00 0.00 0.00 84 1014.5
20260905010922 82 113 0.0 0.0 0.00 0.00 0.00 83 1014.3
20260905010417 82 113 0.0 0.0 0.00 0.00 0.00 83 1014.2
20260905005913 83 113 0.0 0.0 0.00 0.00 0.00 82 1014.0
20260905005409 83 112 0.0 0.0 0.00 0.00 0.00 81 1014.2
20260905004903 83 113 0.0 0.0 0.00 0.00 0.00 80 1014.1
20260905004403 84 113 0.0 0.0 0.00 0.00 0.00 80 1014.2
20260905003858 84 113 0.0 0.0 0.00 0.00 0.00 79 1014.1
20260905003354 85 113 0.0 0.0 0.00 0.00 0.00 78 1014.3
20260905002849 85 111 0.0 0.0 0.00 0.00 0.00 77 1014.1
20260905002344 86 112 0.0 0.0 0.00 0.00 0.00 77 1014.2
20260905001839 86 113 0.0 0.0 0.00 0.00 0.00 75 1014.2
20260905001339 87 112 0.0 0.0 0.00 0.00 0.00 74 1014.1
20260905000834 87 113 0.0 0.0 0.00 0.00 0.00 73 1014.0
20260905000329 88 113 0.0 0.0 0.00 0.00 0.00 71 1013.9
20260904235825 88 113 0.0 0.0 0.00 0.00 0.00 70 1014.3
20260904235320 89 113 0.0 0.0 0.00 0.00 0.00 68 1014.1
20260904234814 90 113 0.0 0.0 0.00 0.00 0.00 67 1014.3
20260904234309 90 113 0.0 0.0 0.00 0.00 0.00 66 1014.4
20260904233805 91 113 0.0 0.0 0.00 0.00 0.00 64 1014.2
20260904233301 91 113 0.0 0.0 0.00 0.00 0.00 63 1013.9
20260904232757 92 113 0.0 0.0 0.00 0.00 0.00 61 1014.0
20260904232253 92 113 0.0 0.0 0.00 0.00 0.00 60 1014.0
20260904231749 93 115 0.0 0.0 0.00 0.00 0.00 57 1013.8
20260904231244 93 104 0.0 1.0 0.00 0.00 0.00 57 1014.1
20260904230739 93 110 1.0 1.0 0.00 0.00 0.00 55 1013.9
20260904230233 93 97 1.0 2.0 0.00 0.00 0.00 55 1013.8
20260904225732 94 113 0.0 0.0 0.00 0.00 0.00 56 1013.6
20260904225226 94 111 1.0 2.0 0.00 0.00 0.00 55 1013.7
20260904224725 94 98 2.0 2.0 0.00 0.00 0.00 54 1013.7
20260904224221 94 114 0.0 0.0 0.00 0.00 0.00 56 1013.9
20260904223720 94 114 0.0 0.0 0.00 0.00 0.00 55 1013.8
20260904223215 94 86 1.0 2.0 0.00 0.00 0.00 54 1013.6
20260904222711 94 111 0.0 1.0 0.00 0.00 0.00 55 1013.5
20260904222207 95 112 0.0 0.0 0.00 0.00 0.00 54 1013.4
20260904221706 95 100 2.0 2.0 0.00 0.00 0.00 53 1013.5
20260904221201 95 121 1.0 1.0 0.00 0.00 0.00 53 1013.7
20260904220655 95 111 0.0 0.0 0.00 0.00 0.00 55 1013.5
20260904220151 95 93 1.0 1.0 0.00 0.00 0.00 56 1013.5
20260904215650 95 86 1.0 1.0 0.00 0.00 0.00 54 1013.4
20260904215146 95 116 1.0 1.0 0.00 0.00 0.00 53 1013.6
20260904214641 96 105 1.0 2.0 0.00 0.00 0.00 53 1013.6
20260904214137 95 111 2.0 2.0 0.00 0.00 0.00 53 1013.6
20260904213635 95 106 1.0 1.0 0.00 0.00 0.00 53 1013.4
20260904213132 95 94 1.0 2.0 0.00 0.00 0.00 53 1013.5
20260904212632 95 102 0.0 0.0 0.00 0.00 0.00 52 1013.5
20260904212127 96 109 4.0 6.0 0.00 0.00 0.00 51 1013.7
20260904211626 96 107 1.0 1.0 0.00 0.00 0.00 54 1013.7
20260904211122 95 113 0.0 1.0 0.00 0.00 0.00 54 1013.5
20260904210622 96 120 1.0 1.0 0.00 0.00 0.00 54 1013.7
20260904210117 96 104 2.0 2.0 0.00 0.00 0.00 54 1013.7
20260904205613 96 112 1.0 1.0 0.00 0.00 0.00 55 1013.7
20260904205109 96 111 2.0 2.0 0.00 0.00 0.00 55 1013.5
20260904204604 96 115 0.0 0.0 0.00 0.00 0.00 55 1013.7
20260904204101 96 133 1.0 2.0 0.00 0.00 0.00 54 1013.7
20260904203556 96 99 0.0 0.0 0.00 0.00 0.00 55 1013.8
20260904203053 95 116 1.0 2.0 0.00 0.00 0.00 55 1014.0
20260904202549 95 83 1.0 2.0 0.00 0.00 0.00 55 1014.0
20260904202045 96 100 2.0 2.0 0.00 0.00 0.00 54 1014.1
20260904201544 96 66 4.0 6.0 0.00 0.00 0.00 53 1014.1
20260904201040 96 55 1.0 2.0 0.00 0.00 0.00 53 1014.3
20260904200538 97 115 0.0 1.0 0.00 0.00 0.00 53 1014.1
20260904200034 96 94 1.0 1.0 0.00 0.00 0.00 54 1014.5
20260904195532 97 112 3.0 3.0 0.00 0.00 0.00 52 1014.6
20260904195032 96 115 2.0 3.0 0.00 0.00 0.00 51 1014.5
20260904194527 96 97 2.0 3.0 0.00 0.00 0.00 52 1014.7
20260904194022 96 124 1.0 2.0 0.00 0.00 0.00 55 1014.7
20260904193516 96 109 1.0 1.0 0.00 0.00 0.00 55 1014.7
20260904193013 96 110 1.0 1.0 0.00 0.00 0.00 54 1015.0
20260904192511 96 95 4.0 7.0 0.00 0.00 0.00 53 1015.1
20260904192008 96 123 4.0 7.0 0.00 0.00 0.00 52 1015.0
20260904191504 96 128 2.0 3.0 0.00 0.00 0.00 53 1015.1
20260904191001 95 105 1.0 2.0 0.00 0.00 0.00 55 1015.3
20260904190456 96 99 2.0 3.0 0.00 0.00 0.00 54 1015.5
20260904185952 97 116 0.0 1.0 0.00 0.00 0.00 53 1015.3
20260904185448 97 101 0.0 0.0 0.00 0.00 0.00 53 1015.3
20260904184942 96 115 0.0 0.0 0.00 0.00 0.00 56 1015.4
20260904184437 94 114 1.0 2.0 0.00 0.00 0.00 59 1015.8
20260904183932 94 112 0.0 0.0 0.00 0.00 0.00 59 1016.0
20260904183427 94 118 0.0 0.0 0.00 0.00 0.00 57 1015.8
20260904182923 95 110 0.0 1.0 0.00 0.00 0.00 57 1016.1
20260904182418 95 101 0.0 0.0 0.00 0.00 0.00 57 1015.8
20260904181913 94 169 1.0 2.0 0.00 0.00 0.00 57 1016.1
20260904181408 95 212 2.0 3.0 0.00 0.00 0.00 58 1016.1
20260904180903 94 115 0.0 0.0 0.00 0.00 0.00 57 1016.3
20260904180358 94 126 0.0 0.0 0.00 0.00 0.00 59 1016.3
20260904175858 95 112 0.0 0.0 0.00 0.00 0.00 59 1016.2
20260904175356 96 113 1.0 1.0 0.00 0.00 0.00 58 1016.6
20260904174850 96 116 1.0 2.0 0.00 0.00 0.00 58 1016.8
20260904174346 97 126 0.0 0.0 0.00 0.00 0.00 58 1016.7
20260904173843 96 114 0.0 0.0 0.00 0.00 0.00 59 1016.4
20260904173337 95 111 1.0 1.0 0.00 0.00 0.00 59 1016.8
20260904172833 95 123 1.0 2.0 0.00 0.00 0.00 58 1016.7
20260904172332 94 87 2.0 2.0 0.00 0.00 0.00 59 1016.8
20260904171828 95 51 2.0 2.0 0.00 0.00 0.00 59 1017.1
20260904171323 96 125 0.0 0.0 0.00 0.00 0.00 57 1016.9
20260904170819 95 117 1.0 1.0 0.00 0.00 0.00 57 1016.9
20260904170315 95 106 1.0 2.0 0.00 0.00 0.00 58 1017.2
20260904165814 95 112 0.0 1.0 0.00 0.00 0.00 58 1016.9
20260904165308 95 129 0.0 0.0 0.00 0.00 0.00 57 1017.1
20260904164802 95 118 2.0 2.0 0.00 0.00 0.00 57 1017.1
20260904164257 94 120 2.0 2.0 0.00 0.00 0.00 57 1017.2
20260904163754 95 110 1.0 2.0 0.00 0.00 0.00 57 1017.3
20260904163248 95 122 0.0 0.0 0.00 0.00 0.00 56 1017.2
20260904162748 94 105 1.0 2.0 0.00 0.00 0.00 57 1017.2
20260904162243 94 83 1.0 2.0 0.00 0.00 0.00 59 1017.6
20260904161739 93 133 1.0 2.0 0.00 0.00 0.00 58 1017.6
20260904161238 93 111 3.0 3.0 0.00 0.00 0.00 60 1017.6
20260904160734 94 110 1.0 1.0 0.00 0.00 0.00 60 1017.6
20260904160230 94 69 3.0 3.0 0.00 0.00 0.00 59 1017.6
20260904155729 94 114 0.0 0.0 0.00 0.00 0.00 60 1017.6
20260904155229 93 123 0.0 1.0 0.00 0.00 0.00 60 1017.6
20260904154727 94 119 0.0 0.0 0.00 0.00 0.00 61 1017.5
20260904154222 94 133 0.0 0.0 0.00 0.00 0.00 62 1017.6
20260904153717 93 104 0.0 1.0 0.00 0.00 0.00 60 1017.6
20260904153213 93 110 0.0 0.0 0.00 0.00 0.00 63 1017.5
20260904152709 92 116 0.0 0.0 0.00 0.00 0.00 67 1017.4
20260904152204 93 115 0.0 0.0 0.00 0.00 0.00 67 1017.3
20260904151659 91 113 0.0 0.0 0.00 0.00 0.00 67 1017.4
20260904151158 91 74 1.0 2.0 0.00 0.00 0.00 66 1017.4
20260904150654 92 107 2.0 2.0 0.00 0.00 0.00 65 1017.6
20260904150149 91 152 0.0 1.0 0.00 0.00 0.00 66 1017.3
20260904145648 91 95 2.0 2.0 0.00 0.00 0.00 68 1017.4
20260904145142 91 120 1.0 1.0 0.00 0.00 0.00 67 1017.4
20260904144638 90 105 0.0 0.0 0.00 0.00 0.00 67 1017.3
20260904144134 90 118 0.0 0.0 0.00 0.00 0.00 69 1017.5
20260904143630 89 116 0.0 0.0 0.00 0.00 0.00 72 1017.1
20260904143126 89 114 0.0 0.0 0.00 0.00 0.00 70 1017.2
20260904142623 90 116 0.0 0.0 0.00 0.00 0.00 67 1017.1
20260904142118 90 112 0.0 0.0 0.00 0.00 0.00 69 1017.2
20260904141613 89 112 0.0 0.0 0.00 0.00 0.00 71 1017.1
20260904141108 88 114 0.0 0.0 0.00 0.00 0.00 72 1017.3
20260904140604 87 106 0.0 0.0 0.00 0.00 0.00 72 1017.6
20260904140058 87 128 0.0 0.0 0.00 0.00 0.00 73 1017.2
20260904135557 86 128 0.0 0.0 0.00 0.00 0.00 75 1017.3
20260904135053 86 93 1.0 2.0 0.00 0.00 0.00 74 1017.4
20260904134548 85 113 0.0 0.0 0.00 0.00 0.00 77 1017.1
20260904134043 83 101 1.0 2.0 0.00 0.00 0.00 79 1017.2
20260904133543 82 104 0.0 0.0 0.00 0.00 0.00 82 1017.3
20260904133034 82 121 0.0 0.0 0.00 0.00 0.00 83 1017.3
20260904132534 82 112 0.0 0.0 0.00 0.00 0.00 83 1017.0
20260904132034 81 108 2.0 2.0 0.00 0.00 0.00 84 1017.2
20260904131533 80 110 0.0 0.0 0.00 0.00 0.00 89 1017.4
20260904131029 79 113 0.0 0.0 0.00 0.00 0.00 90 1017.3
20260904130528 78 104 0.0 0.0 0.00 0.00 0.00 94 1017.1
20260904130023 76 118 0.0 0.0 0.00 0.00 0.00 98 1017.1
20260904125520 76 110 0.0 0.0 0.00 0.00 0.00 99 1016.9
20260904125014 75 112 0.0 0.0 0.00 0.00 0.00 99 1017.1
20260904124510 75 111 0.0 0.0 0.00 0.00 0.00 99 1016.9
20260904124006 75 111 0.0 0.0 0.00 0.00 0.00 99 1016.9
20260904123505 74 111 0.0 0.0 0.00 0.00 0.00 99 1017.0
20260904123001 74 110 0.0 0.0 0.00 0.00 0.00 99 1016.7
20260904122455 73 110 0.0 0.0 0.00 0.00 0.00 99 1016.7
20260904121949 73 111 0.0 0.0 0.00 0.00 0.00 99 1016.6
20260904121446 73 111 0.0 0.0 0.00 0.00 0.00 99 1016.7
20260904120942 72 111 0.0 0.0 0.00 0.00 0.00 99 1016.5
20260904120438 72 110 0.0 0.0 0.00 0.00 0.00 99 1016.6
20260904115932 72 110 0.0 0.0 0.00 0.00 0.00 99 1016.5
20260904115427 72 111 0.0 0.0 0.00 0.00 0.00 99 1016.6
20260904114922 72 112 0.0 0.0 0.00 0.00 0.00 99 1016.4
20260904114422 72 110 0.0 0.0 0.00 0.00 0.00 99 1016.5
20260904113917 71 110 0.0 0.0 0.00 0.00 0.00 99 1016.6
20260904113412 71 111 0.0 0.0 0.00 0.00 0.00 99 1016.4
20260904112911 72 111 0.0 0.0 0.00 0.00 0.00 99 1016.5
20260904112407 72 111 0.0 0.0 0.00 0.00 0.00 99 1016.1
20260904111902 72 111 0.0 0.0 0.00 0.00 0.00 99 1016.3
20260904111358 72 112 0.0 0.0 0.00 0.00 0.00 99 1016.4
20260904110853 72 111 0.0 0.0 0.00 0.00 0.00 99 1016.1
20260904110352 72 111 0.0 0.0 0.00 0.00 0.00 99 1016.0
20260904105847 72 110 0.0 0.0 0.00 0.00 0.00 99 1016.0
20260904105343 72 110 0.0 0.0 0.00 0.00 0.00 99 1016.1
20260904104837 72 110 0.0 0.0 0.00 0.00 0.00 99 1016.0
20260904104332 72 111 0.0 0.0 0.00 0.00 0.00 99 1016.2
20260904103829 72 111 0.0 0.0 0.00 0.00 0.00 99 1016.1
20260904103329 72 110 0.0 0.0 0.00 0.00 0.00 99 1016.0
20260904102825 72 110 0.0 0.0 0.00 0.00 0.00 99 1016.0
20260904102320 72 110 0.0 0.0 0.00 0.00 0.00 99 1016.0
20260904101816 72 111 0.0 0.0 0.00 0.00 0.00 99 1016.0
20260904101312 72 111 0.0 0.0 0.00 0.00 0.00 99 1015.9
20260904100807 73 110 0.0 0.0 0.00 0.00 0.00 99 1015.9
20260904100303 73 110 0.0 0.0 0.00 0.00 0.00 99 1016.0
20260904095758 72 108 0.0 0.0 0.00 0.00 0.00 99 1015.6
20260904095252 72 112 0.0 0.0 0.00 0.00 0.00 99 1015.8
20260904094748 73 112 0.0 0.0 0.00 0.00 0.00 99 1015.9
20260904094242 73 113 0.0 0.0 0.00 0.00 0.00 99 1015.4
20260904093739 73 111 0.0 0.0 0.00 0.00 0.00 99 1015.8
20260904093239 73 111 0.0 0.0 0.00 0.00 0.00 99 1015.5
20260904092734 73 113 0.0 0.0 0.00 0.00 0.00 99 1015.4
20260904092231 73 112 0.0 0.0 0.00 0.00 0.00 99 1015.6
20260904091727 73 112 0.0 0.0 0.00 0.00 0.00 99 1015.6
20260904091221 73 112 0.0 0.0 0.00 0.00 0.00 99 1015.6
20260904090717 73 110 0.0 0.0 0.00 0.00 0.00 99 1015.4
20260904090213 73 110 0.0 0.0 0.00 0.00 0.00 99 1015.5
20260904085707 73 110 0.0 0.0 0.00 0.00 0.00 99 1015.4
20260904085202 73 110 0.0 0.0 0.00 0.00 0.00 99 1015.5
20260904084657 73 111 0.0 0.0 0.00 0.00 0.00 99 1015.6
20260904084153 73 110 0.0 0.0 0.00 0.00 0.00 99 1015.6
20260904083649 74 110 0.0 0.0 0.00 0.00 0.00 99 1015.6
20260904083145 74 111 0.0 0.0 0.00 0.00 0.00 99 1015.6
20260904082639 74 110 0.0 0.0 0.00 0.00 0.00 99 1015.5
20260904082136 74 110 0.0 0.0 0.00 0.00 0.00 99 1015.5